Tekamah, NE

5:38 PM CST on December 16, 2017 (GMT -0600)
Tekamah

Weather History for KTQE - January, 2013

Change the Weather History Date:

Monday, January 14, 2013

  Actual Average Record
Temperature  
Mean Temperature 16 °F -  
Max Temperature 28 °F 32 °F 63 °F (1987)
Min Temperature 5 °F 10 °F -20 °F (1957)
Degree Days  
Heating Degree Days 48    
Moisture  
Dew Point 8 °F    
Average Humidity 73    
Maximum Humidity 80    
Minimum Humidity 51    
Precipitation  
Precipitation 0.00 in - - ()
Sea Level Pressure  
Sea Level Pressure 30.43 in    
Wind  
Wind Speed 5 mph (South)    
Max Wind Speed 9 mph    
Max Gust Speed -    
Visibility 10 miles    
Events      
Averages and records for this station are not official NWS values.
T = Trace of Precipitation, MM = Missing Value Source: NWS Daily Summary

Daily Weather History Graph

Daily Weather History Graph

Search for Another Location

Airport or City:

Trip Planner

Search our weather history database for the weather conditions in past years. The results will help you decide how hot, cold, wet, or windy it might be!

Date:

Astronomy

Jan. 14, 2013 Rise Set
Actual Time 7:49 AM CST 5:18 PM CST
Civil Twilight 7:19 AM CST 5:49 PM CST
Nautical Twilight 6:44 AM CST 6:23 PM CST
Astronomical Twilight 6:11 AM CST 6:56 PM CST
Moon 9:20 AM CST (1/14) 9:08 PM CST (1/14)
Length of Visible Light 10h 29m
Length of Day
9h 28m
Waxing Crescent, 11% of the Moon is Illuminated
Jan 14
Waxing Crescent
Jan 18
First Quarter
Jan 26
Full
Feb 3
Last Quarter
Feb 10
New

Hourly Weather History & Observations

Time (CST) Temp. Windchill Dew Point Humidity Pressure Visibility Wind Dir Wind Speed Gust Speed Precip Events Conditions
12:54 AM 8.1 °F -2.0 °F 1.9 °F 76% 30.39 in 10.0 mi SSE 5.8 mph - N/A   Clear
1:54 AM 7.0 °F - 1.0 °F 77% 30.40 in 10.0 mi Calm Calm - N/A   Clear
2:54 AM 7.0 °F - 1.9 °F 80% 30.42 in 10.0 mi Calm Calm - N/A   Clear
3:54 AM 7.0 °F -1.7 °F 1.9 °F 80% 30.43 in 10.0 mi SSW 4.6 mph - N/A   Clear
4:54 AM 8.1 °F -2.0 °F 1.9 °F 76% 30.42 in 10.0 mi South 5.8 mph - N/A   Clear
5:54 AM 6.1 °F -2.8 °F 1.0 °F 80% 30.43 in 10.0 mi South 4.6 mph - N/A   Clear
6:54 AM 5.0 °F -2.1 °F -0.0 °F 80% 30.47 in 10.0 mi South 3.5 mph - N/A   Clear
7:54 AM 6.1 °F -4.3 °F 1.0 °F 80% 30.49 in 10.0 mi South 5.8 mph - N/A   Clear
8:54 AM 10.0 °F 3.6 °F 5.0 °F 80% 30.50 in 10.0 mi SSW 3.5 mph - N/A   Clear
9:54 AM 15.1 °F 9.4 °F 8.1 °F 74% 30.51 in 10.0 mi SSW 3.5 mph - N/A   Clear
10:54 AM 19.0 °F - 10.0 °F 68% 30.50 in 10.0 mi Calm Calm - N/A   Clear
11:54 AM 21.9 °F 15.7 °F 10.9 °F 63% 30.46 in 10.0 mi South 4.6 mph - N/A   Clear
2:54 PM 28.0 °F 21.7 °F 12.0 °F 51% 30.40 in 10.0 mi SW 5.8 mph - N/A   Clear
3:54 PM 28.0 °F 20.0 °F 12.9 °F 53% 30.40 in 10.0 mi SSW 8.1 mph - N/A   Clear
4:54 PM 27.0 °F 20.5 °F 14.0 °F 58% 30.39 in 10.0 mi SSW 5.8 mph - N/A   Partly Cloudy
5:54 PM 23.0 °F 14.7 °F 16.0 °F 74% 30.40 in 10.0 mi South 6.9 mph - N/A   Scattered Clouds
6:54 PM 21.0 °F 10.6 °F 14.0 °F 74% 30.41 in 10.0 mi South 9.2 mph - N/A   Scattered Clouds
7:54 PM 19.9 °F 11.1 °F 12.9 °F 74% 30.41 in 10.0 mi SSW 6.9 mph - N/A   Overcast
8:54 PM 18.0 °F 8.7 °F 12.0 °F 78% 30.41 in 10.0 mi South 6.9 mph - N/A   Overcast
9:54 PM 16.0 °F 6.3 °F 10.0 °F 77% 30.40 in 10.0 mi South 6.9 mph - N/A   Clear
10:54 PM 17.1 °F 6.6 °F 10.0 °F 74% 30.39 in 10.0 mi South 8.1 mph - N/A   Partly Cloudy
11:54 PM 15.1 °F 7.7 °F 9.0 °F 77% 30.38 in 10.0 mi South 4.6 mph - N/A   Clear